Change the Weather History Date:

Wednesday, November 23, 2011

  Actual Average Record
Temperature  
Mean Temperature 54 °F 30 °F  
Max Temperature 60 °F 40 °F 63 °F (1942)
Min Temperature 47 °F 21 °F -25 °F (1985)
Degree Days  
Heating Degree Days 11 35  
Month to date heating degree days 742 696  
Since 1 July heating degree days 1438 1716  
Cooling Degree Days 0 0  
Month to date cooling degree days 0 0  
Year to date cooling degree days 365 298  
Growing Degree Days 3 (Base 50)    
Moisture  
Dew Point 22 °F    
Average Humidity 33    
Maximum Humidity 46    
Minimum Humidity 20    
Precipitation  
Precipitation 0.00 in 0.02 in 1.14 in (1892)
Month to date precipitation 0.31 0.46  
Year to date precipitation 16.16 14.07  
Snow  
Snow 0.00 in 0.30 in 11.10 in (1892)
Month to date snowfall 5.0 6.0  
Since 1 July snowfall 5.1 11.6  
Since 1 September snowfall 5.1 11.3  
Snow Depth 0.00 in    
Sea Level Pressure  
Sea Level Pressure 29.62 in    
Wind  
Wind Speed 24 mph (SSW)    
Max Wind Speed 44 mph    
Max Gust Speed 56 mph    
Visibility 10 miles    
Events      
T = Trace of Precipitation, MM = Missing Value Source: NWS Daily Summary

Daily Weather History Graph

Daily Weather History Graph

Search for Another Location

Airport or City:

Trip Planner

Search our weather history database for the weather conditions in past years. The results will help you decide how hot, cold, wet, or windy it might be!

Date:

Astronomy

Nov. 23, 2011 Rise Set
Actual Time 7:41 AM MST 4:41 PM MST
Civil Twilight 7:07 AM MST 5:16 PM MST
Nautical Twilight 6:29 AM MST 5:54 PM MST
Astronomical Twilight 5:52 AM MST 6:30 PM MST
Moon 5:47 AM MST (11/23) 3:27 PM MST (11/23)
Length of Visible Light 10h 08m
Length of Day
9h 00m
Waning Crescent, 3% of the Moon is Illuminated
Nov 23
Waning Crescent
Nov 24
New
Dec 2
First Quarter
Dec 10
Full
Dec 17
Last Quarter

Hourly Weather History & Observations

Time (MST) Temp. Dew Point Humidity Pressure Visibility Wind Dir Wind Speed Gust Speed Precip Events Conditions
12:53 AM 50.0 °F 28.4 °F 43% 29.75 in 10.0 mi SSW 20.7 mph 31.1 mph N/A   Clear
1:53 AM 48.2 °F 28.4 °F 46% 29.74 in 10.0 mi SSW 15.0 mph 27.6 mph N/A   Clear
2:53 AM 48.0 °F 28.9 °F 48% 29.73 in 10.0 mi SSW 12.7 mph 23.0 mph N/A   Clear
3:53 AM 50.0 °F 28.9 °F 44% 29.70 in 10.0 mi SSW 20.7 mph 32.2 mph N/A   Clear
4:53 AM 50.0 °F 26.6 °F 40% 29.68 in 10.0 mi SSW 31.1 mph 41.4 mph N/A   Clear
5:53 AM 46.9 °F 27.0 °F 46% 29.71 in 10.0 mi South 17.3 mph - N/A   Clear
6:53 AM 48.0 °F 25.0 °F 41% 29.68 in 10.0 mi SSW 18.4 mph - N/A   Clear
7:53 AM 50.0 °F 23.0 °F 35% 29.64 in 10.0 mi SSW 27.6 mph 35.7 mph N/A   Clear
8:53 AM 52.0 °F 21.0 °F 30% 29.66 in 10.0 mi SSW 24.2 mph 31.1 mph N/A   Clear
9:53 AM 55.0 °F 21.9 °F 28% 29.60 in 10.0 mi SW 34.5 mph 41.4 mph N/A   Clear
10:53 AM 57.9 °F 19.9 °F 23% 29.60 in 10.0 mi SSW 33.4 mph 48.3 mph N/A   Clear
11:53 AM 57.9 °F 19.0 °F 22% 29.60 in 10.0 mi SW 31.1 mph 47.2 mph N/A   Clear
12:53 PM 60.1 °F 21.0 °F 22% 29.56 in 10.0 mi SW 26.5 mph 41.4 mph N/A   Clear
1:53 PM 60.1 °F 19.0 °F 20% 29.56 in 10.0 mi SW 38.0 mph 51.8 mph N/A   Clear
2:53 PM 59.0 °F 19.9 °F 22% 29.57 in 10.0 mi SSW 27.6 mph 39.1 mph N/A   Clear
3:53 PM 55.9 °F 21.0 °F 26% 29.60 in 10.0 mi South 21.9 mph 28.8 mph N/A   Clear
4:53 PM 52.0 °F 21.0 °F 30% 29.60 in 10.0 mi SSW 17.3 mph 23.0 mph N/A   Clear
5:53 PM 55.9 °F 19.0 °F 24% 29.56 in 10.0 mi SSW 23.0 mph 38.0 mph N/A   Clear
6:53 PM 55.9 °F 19.0 °F 24% 29.56 in 10.0 mi SSW 29.9 mph 40.3 mph N/A   Clear
7:53 PM 55.4 °F 19.4 °F 25% 29.55 in 10.0 mi SSW 26.5 mph 41.4 mph N/A   Clear
8:53 PM 53.1 °F 19.9 °F 27% 29.52 in 10.0 mi SSW 27.6 mph 41.4 mph N/A   Clear
9:53 PM 54.0 °F 18.0 °F 24% 29.53 in 10.0 mi SSW 25.3 mph 35.7 mph N/A   Clear
10:53 PM 52.0 °F 18.0 °F 26% 29.54 in 10.0 mi SSW 21.9 mph 28.8 mph N/A   Clear
11:53 PM 50.0 °F 19.9 °F 31% 29.54 in 10.0 mi South 15.0 mph - N/A   Clear